Bow, United Kingdom
Current Conditions -  °F | °C
As of 1:50 AM on Saturday 25 Oct 2014 (Local Time) from EGLC Reporting Station
Scattered Clouds Scattered Clouds  
Wind Chill: 54°   Ceiling: Unl
Heat Index: 54°   Visibility: 6mi
Dew Point: 50°   Wind: 9mph
Humidity: 88%   Direction: 250°WSW
Pressure: 30"   Gusts: NA
Location:  51.53°N, 0.03°W
Report Text: EGLC 250050Z AUTO 25008KT 9999 SCT035/// 12/10 Q1016
Loading
Personal Weather Stations






























Interactive Weather Map
Tropical Storm Tracking
New forecast layout! Learn more

10-Day Weather Forecast

Advertisements
Track Severe Weather on mobile